カタログに戻る

CZ-6A DEB

運用中SSO
NORAD 56609·DEBRIS·🇨🇳 China

打ち上げ Nov 11, 2022 から Taiyuan Satellite Launch Center

Loading…

次のパス (今後24時間)

TLE

経年Source: Space-Track

元期: Sep 8, 2026, 08:31 UTC

1 56609U 22151AEH 26251.35514278  .00000472  00000-0  35472-3 0  9995
2 56609  98.8716 212.2406 0121619 189.9367 169.9388 13.95656237171591

AllMySatでCZ-6A DEBをリアルタイム追跡

Download on the App Store